• Join FlightAware (Why Join?)
  • Login
  • US Flag GB Flag 
20:51 EDT


 

Airport Tracker/Info


-or-


 

Live Flight TrackerFlight Track Log ✈ AWI3778 ✈ 07-May-2013 ✈ KBTV - KPHL

Flight Track Log - Related Links

Times and Time Zones

All times are in EDT time to prevent confusion due to time zone crossing. See the AWI3778 flight status page for this flight to view local times or setup timezone preferences in your user account.

Time Position Orientation Groundspeed Altitude Reporting Facility
EDT Latitude Longitude Course Direction KTS MPH feet Rate Location/Type
14:52 44.1947 -73.1350 194° South 286 329 6,400  Level Boston Center
14:53 44.1256 -73.1806 205° Southwest 286 329 8,900 2,400 Climbing Boston Center
14:54 43.8379 -73.3896 195° South  Level FlightAware Approximate
14:54 44.0606 -73.2403 213° Southwest 281 323 11,300  Level Boston Center
14:55 43.7327 -73.4284 195° South  Level FlightAware Approximate
14:55 43.9933 -73.3058 215° Southwest 298 343 13,500  Level Boston Center
14:56 43.6276 -73.4671 195° South  Level FlightAware Approximate
14:56 43.9075 -73.3881 215° Southwest 330 380 14,700  Level Boston Center
14:57 43.5220 -73.5038 194° South  Level FlightAware Approximate
14:57 43.8211 -73.4675 214° Southwest 357 411 16,400  Level Boston Center
14:58 43.7350 -73.5492 214° Southwest 382 440 18,000 1,500 Climbing Boston Center
14:59 43.6467 -73.6278 213° Southwest 382 440 19,500 1,380 Climbing Boston Center
15:00 43.5606 -73.7094 215° Southwest 382 440 20,800 1,200 Climbing Boston Center
15:01 43.4697 -73.7961 215° Southwest 387 445 21,900 1,020 Climbing Boston Center
15:02 43.3772 -73.8797 213° Southwest 393 452 22,900 900 Climbing Boston Center
15:03 43.2822 -73.9689 214° Southwest 406 467 23,800 720 Climbing Boston Center
15:04 43.1850 -74.0547 213° Southwest 417 480 24,600 660 Climbing Boston Center
15:05 43.0772 -74.1542 214° Southwest 422 486 25,300 600 Climbing Boston Center
15:06 42.9758 -74.2450 213° Southwest 428 493 25,900 300 Climbing Boston Center
15:07 42.8764 -74.3356 214° Southwest 434 499 26,000  Climbing Boston Center
15:08 42.7747 -74.4314 215° Southwest 446 513 26,000  Level Boston Center
15:09 42.6689 -74.5211 212° Southwest 446 513 26,000  Level Boston Center
15:10 42.5672 -74.6136 214° Southwest 446 513 26,000  Level Boston Center
15:11 42.4653 -74.7031 213° Southwest 446 513 26,000 -600 Level Boston Center
15:12 42.3422 -74.8136 214° Southwest 446 513 24,700 -1,620 Descending Boston Center
15:14 42.1461 -74.9889 214° Southwest 409 471 21,100 -1,740 Descending New York Center
15:15 42.0497 -75.0664 211° Southwest 404 465 19,900 -1,080 Descending New York Center
15:16 41.9489 -75.1492 211° Southwest 404 465 19,000 -480 Descending New York Center
15:17 41.8586 -75.2211 211° Southwest 395 455 19,000 -660 Level New York Center
15:18 41.7642 -75.2981 211° Southwest 395 455 17,700 -1,380 Descending New York Center
15:19 41.6847 -75.3622 211° Southwest 401 461 16,300 -900 Descending New York Center
15:20 41.5967 -75.4311 210° Southwest 380 437 16,000 -180 Descending New York Center
15:21 41.4997 -75.5103 211° Southwest 380 437 16,000 -180 Level New York Center
15:22 41.4136 -75.5789 211° Southwest 375 432 15,700 -1,320 Descending New York Center
15:23 41.3361 -75.6394 210° Southwest 367 422 13,400 -1,920 Descending New York Center
15:24 41.2469 -75.6856 201° Southwest 358 412 11,900 -1,200 Descending New York Center
15:25 41.1614 -75.6875 181° South 330 380 11,000 -1,020 Descending New York Center
15:26 41.0678 -75.6836 178° South 310 357 10,000 -540 Descending New York Center
15:27 40.9906 -75.6861 181° South 310 357 10,000  Level New York Center
15:28 40.9050 -75.6883 181° South 310 357 10,000  Level New York Center
15:29 40.8092 -75.6869 179° South 310 357 10,000  Level New York Center
15:30 40.7239 -75.6861 180° South 310 357 10,000  Level New York Center
15:31 40.6447 -75.6861 180° South 310 357 10,000  Level New York Center
15:32 40.5669 -75.6531 162° South 293 337 10,000  Level New York Center
15:33 40.5125 -75.5564 127° Southeast 279 321 10,000  Level New York Center
15:34 40.4722 -75.4717 122° Southeast 279 321 10,000  Level New York Center
15:35 40.4181 -75.4161 142° Southeast 274 315 10,000 -240 Level New York Center
15:36 40.3508 -75.3764 156° South 274 315 9,600 -1,020 Descending New York Center
15:37 40.2775 -75.3306 155° Southeast 269 310 8,000 -1,440 Descending New York Center
15:38 40.2214 -75.2781 144° Southeast 256 295 6,700 -1,020 Descending New York Center
15:39 40.1667 -75.2881 188° South 219 252 6,000 -1,200 Descending New York Center
15:40 40.1786 -75.3594 282° West 148 170 4,300 -1,560 Descending New York Center
15:41 40.1758 -75.4300 267° West 182 209 3,000 -720 Descending New York Center
15:42 40.1481 -75.3953 136° Southeast 67 77 3,000  Level New York Center
15:43 40.1203 -75.3528 131° Southeast 116 133 3,000  Level New York Center
15:44 40.0833 -75.3333 158° South 151 174 3,100  Climbing Philadelphia TRACON
15:45 40.0500 -75.3167 159° South 152 175 3,100 -300 Level Philadelphia TRACON
15:46 40.0000 -75.3000 166° South 153 176 2,600 -660 Descending Philadelphia TRACON
15:47 39.9667 -75.2833 159° South 148 170 1,800 -780 Descending Philadelphia TRACON
15:48 39.9333 -75.2667 159° South 127 146 1,100 -720 Descending Philadelphia TRACON
15:49 39.9000 -75.2500 159° South 137 158 400 -720 Descending Philadelphia TRACON
15:51 39.8667 -75.2333 247° West  Level FlightAware Approximate
15:58 39.8722 -75.2409 247° West  Level Estimated